Back to catalog

YAMAL 201

AliveCommunicationsGEO
NORAD 28094·PAYLOAD·🇷🇺 Russia

Launched Nov 24, 2003 from Baikonur Cosmodrome

Loading…

TLE

FreshSource: Space-Track

Epoch: Sep 14, 2026, 10:48 UTC

1 28094U 03053B   26257.45023794 -.00000239  00000-0  00000-0 0  9995
2 28094   9.8122  54.5831 0006966 136.9930  53.4003  1.00293756 85776

Track YAMAL 201 in real time with AllMySat

Download on the App Store